Погода в Среднеколымске

Погода в Среднеколымске : погода сейчас, прогноз погоды и архив. Всё, что Вы хотите узнать о погоде в Среднеколымске!

Поиск расширенной информации на нашем сайте:

Другие новости

Новости СМИ2

Главная страница сайта

Новости сайта

03.07.2017

Напоминаем, что на нашем специализированном сайте Метеоцентр.Азия вы можете получить высокодетализированные автоматические прогнозы погоды по пунктам России, СНГ и мира в авиационном формате (включающие направление и скорость ветра, видимость, явления погоды, количество и форму облачности, нижнюю и верхнюю границу облачности).


Погода в Среднеколымске - сегодня

Время (UTC), дата Ветер
(°,м/с) 
Видим.   Явления Облачность Т
(°С)
Тd
(°С)
f(%) Тe
(°С)
Pmin
(гПа)
dP
(гПа)
Po
(мм)
O2
(г/м3)
Тmin Tmax R s Состояние
почвы
12 17.09.17 060 (СВ) 20000 м    3/0 верхняя 
[Ci fib]
+0.4 -2.8 79 -1  1008.4  -0.8  753  303           
15 17.09.17 040 (СВ) 20000 м    8/0 верхняя 
[Ci fib]
-1.1 -2.4 91 -4  1007.8  -0.6  753  305           
18 17.09.17 040 (СВ) 20000 м    10/0 средняя, верхняя 
[Ac trans|Ci fib]
-0.9 -2.5 89 -3  1007.9  0.1  753  305           
21 17.09.17 040 (СВ) 20000 м    10/4 600 м кучево-дожд., средняя, верхняя 
[Cb cap|Ac trans|Ci fib]
+0 -3.4 78 -2  1008.6  0.7  754  304  -0.9        замёрзшая 
00 18.09.17 040 (СВ) 5-10{12}  20000 м    10/5 600 м кучево-дожд., средняя, верхняя 
[Cb cap|Ac trans|Ci fib]
+1.3 -5.4 61 -1  1009.6  754  303           
03 18.09.17 040 (СВ) 4{11}  20000 м    10/10 600 м 
[Sc]
+1.4 -3.4 70 -1  1011.2  1.6  755  303           
06 18.09.17 020 (С) 20000 м    10/10 600 м 
[Sc]
+1.6 -3.8 67 1013.3  2.1  757  304           
12 18.09.17 020 (С) 20000 м    10/10 1000 м 
[Sc]
+0.2 -4 73 -1  1017.1  1.7  760  306           
15 18.09.17 270 (З) 20000 м    10/10 1000 м 
[Sc]
-0.7 -3.8 79 1018.2  1.1  761  308           
18 18.09.17 тихо ()   20000 м    10/10 1000 м 
[Sc]
-1.2 -3.8 82 -1  1018.9  0.7  761  309           
21 18.09.17 110 (В) 20000 м    10/10 1000 м 
[Sc]
-0.7 -2.9 85 1020  1.1  762  308  -1.2        замёрзшая 
00 19.09.17 260 (З) 20000 м    10/10 600 м кучево-дожд. 
[Cb cap]
+1.1 -3.7 70 +2  1020.3  0.2  762  306           
03 19.09.17 230 (ЮЗ) 20000 м  в посл. час ливневой снег  10/10 600 м кучево-дожд. 
[Cb cap]
+1.9 -3.1 69 +1  1019.7  -0.6  762  305           
06 19.09.17 230 (ЮЗ) 20000 м  {ливн. осадки}  10/10 600 м кучево-дожд. 
[Cb cap]
+2.5 -4.5 60 +2  1019  -0.6  761  305           
09 19.09.17 200 (Ю) 20000 м    10/10 600 м кучево-дожд. 
[Cb cap]
+2.1 -4.3 63 +1  1019  761  305    +2.6  0.0     
12 19.09.17 210 (ЮЗ) 20000 м  слаб. ливневой снег  10/10 600 м кучево-дожд. 
[Cb cap]
+1.3 -0.9 85 +1  1019.3  0.2  761  305           
15 19.09.17 200 (Ю) 20000 м  {ливн. осадки}  10/10 600 м кучево-дожд. 
[Cb cap]
+0 -0.8 94 +1  1018.8  -0.4  761  307           
18 19.09.17 тихо ()   20000 м  {ливн. осадки}  10/10 600 м кучево-дожд. 
[Cb cap]
-1 -1.7 95 -1  1018.4  -0.4  761  308           
21 19.09.17 тихо ()   20000 м    9/9 600 м кучево-дожд. 
[Cb cap]
-0.2 -1.6 90 -0  1018.2  -0.2  761  307  -0.8    0.5  <0.5  сухой снег
50-90% 
00 20.09.17 130 (ЮВ) 20000 м    4/3 1000 м верхняя 
[Sc|Ci fib]
+4.1 -4.5 53 +4  1017  -1.2  760  302           
03 20.09.17 140 (ЮВ) 20000 м    5/1 1000 м верхняя 
[Sc|Ci fib]
+7 -4 45 +6  1014.5  -2.4  758  298           
06 20.09.17 140 (ЮВ) 20000 м    5/0 верхняя 
[Ci fib]
+7.7 -3.3 46 +8  1012.4  -2.1  756  297           
09 20.09.17 090 (В) 20000 м    4/0 верхняя 
[Ci fib]
+3.1 -2.3 68 +3  1011.8  -0.7  756  301    +7.7       
12 20.09.17 120 (ЮВ) 20000 м    3/0 верхняя 
[Ci fib]
+1.5 -2.3 76 +2  1010.7  -1.1  755  303           
15 20.09.17 120 (ЮВ) 20000 м    3/0 верхняя 
[Ci fib]
+0.6 -2.3 81 1009.6  -1.1  754  304           
Время (UTC), дата Ветер
(°,м/с) 
Видим.   Явления Облачность Т
(°С)
Тd
(°С)
f(%) Тe
(°С)
Pmin
(гПа)
dP
(гПа)
Po
(мм)
O2
(г/м3)
Тmin Tmax R s Состояние
почвы

Для получения пояснительной информации подведите курсор к названию столбца.

ПОГОДА в Среднеколымске - архив

Всё, что Вы хотите узнать о погоде в Среднеколымске - удобно и подробно!

Выберите нужную дату (начиная с 1 января 2015* года) и нажмите кнопку "Найти".
Будут отображены архивные сводки погоды по пункту Среднеколымск, начиная с указанной даты.


Отображать данные в формате CSV (для использования в таблицах Excel)


Внимание! Наш архив погоды предназначен исключительно для личного некоммерческого использования в познавательных целях. Если Вам необходимы официальные справки о состоянии погоды (для производственных, юридических, коммерческих и т.п. целей), обращайтесь в органы Росгидромета.

*Примечание: данная дата относится к архиву по метеостанциям СССР (Россия, СНГ, Балтия).
Архив по метеостанциям Зарубежной Европы и Азии (кроме Китая) хранится 10 дней, по другим регионам земного шара (Китай, Африка, Америка, Австралия, Океания) - 1 день.

Среднеколымск - район местоположения метеостанции


Название, широта, долгота, высота метеостанции:
Среднеколымск 67.45°ш. 153°д. 21 м над ур. моря [Российская Федерация]

Дополнительная информация

В oтличие oт бoльшинства пoгoдных сайтoв мы публикуем пoдрoбную метеoинфoрмацию в детальнoм прoфессиoнальнoм фoрмате.

Характеристики температуры и влажнoсти вoздуха измеряются на высoте 2 м в тени вдали oт зданий и деревьев.
Скoрoсть ветра измеряется на высoте 10 м (на урoвне рoста челoвека скoрoсть ветра ниже в 1.5-2 раза). Если метеoстанция нахoдится в гoрoде или в лесу, тo скoрoсть ветра занижена на 2-4 м/с пo сравнению с oткрытым местoм. Скoрoсть ветра над акватoриями крупных рек и oзёр, а также на вершинах хoлмoв на 2-5 м/с выше, чем в oбычных услoвиях.
Атмoсфернoе давление в разных тoчках местнoсти мoжет значительнo oтличаться oт давления на метеoстанции, в зависимoсти oт услoвий рельефа (при пoдъёме на 10 м давление пoнижается примернo на 1 мм рт.ст.).